Stations météo

réclame
Mon MeteoGroup
Faßberg, Allemagne (10246): Température de l'air & dewpoint: 09.08.2018 01:00:00 - 15.08.2018 01:00:00 (CEST)Faßberg, Allemagne (10246): Vitesse du vent & gusts: 09.08.2018 01:00:00 - 15.08.2018 01:00:00 (CEST)Faßberg, Allemagne (10246): Direction du vent: 09.08.2018 01:00:00 - 15.08.2018 01:00:00 (CEST)Faßberg, Allemagne (10246): reduced air pressure: 09.08.2018 01:00:00 - 15.08.2018 01:00:00 (CEST)Faßberg, Allemagne (10246): visibility: 09.08.2018 01:00:00 - 15.08.2018 01:00:00 (CEST)
Date & Time tt [°C] td [°C] ff [km/h] ff [knt] fx [km/h] fx [knt] dd ppp [hPa] vv [km]
15.08.2018 01:00:00 14,7 13,1 11 6 - - W 1016,4 30
15.08.2018 00:00:00 15,4 14,1 11 6 - - W 1015,9 30
14.08.2018 23:00:00 15,8 14,5 11 6 - - W 1015,4 30
14.08.2018 22:00:00 16,4 14,8 11 6 - - WNW 1014,9 30
14.08.2018 21:00:00 16,9 14,7 29 16 47 25 NW 1014,3 20
14.08.2018 20:00:00 18,4 15,8 11 6 - - WNW 1012,9 20
14.08.2018 19:00:00 18,4 15,7 18 10 - - WNW 1012,7 20
14.08.2018 18:00:00 17,4 15,8 25 14 - - WNW 1012,4 10
14.08.2018 17:00:00 18,7 16,9 22 12 - - WNW 1011,5 15
14.08.2018 16:00:00 21,2 15,6 22 12 - - WNW 1010,5 20
14.08.2018 15:00:00 22,8 14,5 22 12 - - WNW 1010,0 25
14.08.2018 14:00:00 20,1 14,8 18 10 - - W 1009,9 25
14.08.2018 13:00:00 19,7 15,3 11 6 - - WNW 1009,7 25
14.08.2018 12:00:00 17,3 16,0 7 4 - - WNW 1009,6 15
14.08.2018 11:00:00 18,9 14,8 18 10 - - W 1009,5 9
14.08.2018 10:00:00 17,5 15,5 14 8 - - WSW 1009,1 6
14.08.2018 09:00:00 16,1 14,8 14 8 - - WSW 1008,9 2,0
14.08.2018 08:00:00 16,6 13,9 18 10 - - WSW 1008,6 8
14.08.2018 07:00:00 16,5 13,6 18 10 - - W 1008,1 12
14.08.2018 06:00:00 16,6 14,1 18 10 - - W 1007,7 15
14.08.2018 05:00:00 16,4 14,0 14 8 - - WSW 1007,6 15
14.08.2018 04:00:00 16,5 14,2 18 10 - - W 1007,4 20
14.08.2018 03:00:00 16,6 14,3 14 8 - - W 1007,5 18
14.08.2018 02:00:00 16,3 14,1 18 10 - - W 1007,6 20
14.08.2018 01:00:00 16,6 13,9 18 10 - - W 1007,3 25
14.08.2018 00:00:00 17,5 13,4 14 8 - - WSW 1007,0 18
13.08.2018 23:00:00 18,4 13,5 14 8 - - W 1006,6 25
13.08.2018 22:00:00 19,2 15,1 11 6 - - W 1006,2 25
13.08.2018 21:00:00 19,4 16,4 7 4 - - WSW 1005,9 20
13.08.2018 20:00:00 19,6 16,1 11 6 - - W 1005,5 30
13.08.2018 19:00:00 22,1 14,5 14 8 - - SSW 1005,2 30
13.08.2018 18:00:00 22,4 13,8 14 8 - - SSW 1005,7 30
13.08.2018 17:00:00 21,5 14,2 14 8 - - SSW 1006,1 30
13.08.2018 16:00:00 21,4 13,9 14 8 - - SSW 1006,7 30
13.08.2018 15:00:00 21,8 13,4 14 8 - - SW 1007,0 30
13.08.2018 14:00:00 24,3 9,8 22 12 - - SW 1006,9 35
13.08.2018 13:00:00 26,6 7,1 29 16 - - WSW 1006,4 35
13.08.2018 12:00:00 27,1 6,4 25 14 - - SSW 1006,4 35
13.08.2018 11:00:00 26,4 6,6 18 10 - - SSW 1006,6 30
13.08.2018 10:00:00 23,2 7,1 7 4 - - SSW 1006,8 30
13.08.2018 09:00:00 19,6 7,9 4 2 - - N 1007,1 30
13.08.2018 08:00:00 14,8 9,8 4 2 - - N 1007,8 30
13.08.2018 07:00:00 10,6 8,2 4 2 - - E 1007,9 30
13.08.2018 06:00:00 9,7 7,4 7 4 - - E 1008,4 30
13.08.2018 05:00:00 12,0 8,1 4 2 - - E 1008,6 40
13.08.2018 04:00:00 10,8 8,3 4 2 - - E 1009,2 40
13.08.2018 03:00:00 12,0 9,3 7 4 - - E 1009,7 40
13.08.2018 02:00:00 13,7 10,3 4 2 - - ESE 1010,3 40
13.08.2018 01:00:00 14,1 10,2 7 4 - - ENE 1010,7 40
13.08.2018 00:00:00 15,0 11,1 7 4 - - E 1010,9 40
12.08.2018 23:00:00 15,9 11,0 0 0 - - N 1011,3 40
12.08.2018 22:00:00 17,6 10,9 4 2 - - E 1011,6 40
12.08.2018 21:00:00 19,3 11,2 7 4 - - SE 1011,7 40
12.08.2018 20:00:00 21,8 11,0 7 4 - - SE 1011,9 40
12.08.2018 19:00:00 24,7 8,3 7 4 - - W 1012,4 40
12.08.2018 18:00:00 24,8 8,2 7 4 - - S 1013,0 30
12.08.2018 17:00:00 24,4 7,8 11 6 - - W 1013,7 30
12.08.2018 16:00:00 23,9 7,9 14 8 - - WNW 1014,7 25
12.08.2018 15:00:00 23,0 7,0 18 10 - - W 1015,4 25
12.08.2018 14:00:00 23,4 6,8 14 8 - - W 1015,8 25
12.08.2018 13:00:00 22,1 6,6 14 8 - - WSW 1016,4 25
12.08.2018 12:00:00 21,1 5,9 18 10 - - WSW 1017,2 25
12.08.2018 11:00:00 20,3 7,5 18 10 - - WSW 1017,7 30
12.08.2018 10:00:00 18,2 8,3 14 8 - - SW 1018,0 40
12.08.2018 09:00:00 15,4 9,8 11 6 - - SW 1018,4 40
12.08.2018 08:00:00 12,5 9,1 7 4 - - SW 1018,8 30
12.08.2018 07:00:00 7,9 7,2 0 0 - - N 1019,4 25
12.08.2018 06:00:00 7,2 6,5 0 0 - - N 1019,7 18
12.08.2018 05:00:00 7,1 6,4 0 0 - - N 1019,9 30
12.08.2018 04:00:00 7,8 7,1 4 2 - - SSW 1020,2 40
12.08.2018 03:00:00 7,7 7,0 4 2 - - SSW 1020,4 40
12.08.2018 02:00:00 8,7 7,8 4 2 - - SSW 1020,8 40
12.08.2018 01:00:00 9,3 8,0 4 2 - - SW 1021,1 40
12.08.2018 00:00:00 10,2 8,8 4 2 - - SW 1021,3 40
11.08.2018 23:00:00 11,1 8,7 4 2 - - SSW 1021,2 40
11.08.2018 22:00:00 14,2 9,2 7 4 - - WNW 1021,2 40
11.08.2018 21:00:00 15,9 8,9 11 6 - - WNW 1020,9 40
11.08.2018 20:00:00 17,1 10,4 14 8 - - WNW 1020,7 40
11.08.2018 19:00:00 17,4 10,2 18 10 - - W 1020,6 40
11.08.2018 18:00:00 15,9 11,2 25 14 - - W 1020,6 25
11.08.2018 17:00:00 17,0 10,0 22 12 - - W 1020,3 30
11.08.2018 16:00:00 16,7 11,0 22 12 47 25 WNW 1020,0 20
11.08.2018 15:00:00 15,1 9,9 35 19 72 39 W 1020,4 10
11.08.2018 14:00:00 18,4 6,5 25 14 - - W 1019,3 40
11.08.2018 13:00:00 18,3 7,4 29 16 54 29 W 1019,0 50
11.08.2018 12:00:00 16,7 8,4 32 18 47 25 W 1019,6 50
11.08.2018 11:00:00 15,8 10,0 25 14 - - W 1019,7 50
11.08.2018 10:00:00 14,8 10,5 25 14 47 25 W 1019,5 50
11.08.2018 09:00:00 12,9 11,0 18 10 - - W 1019,5 50
11.08.2018 08:00:00 12,0 10,6 11 6 - - WSW 1019,3 30
11.08.2018 07:00:00 11,7 9,0 16 9 - - W 1019,2 3,0
11.08.2018 06:00:00 13,1 6,5 14 8 - - WSW 1018,4 50
11.08.2018 05:00:00 13,2 6,5 11 6 - - S 1018,0 50
11.08.2018 04:00:00 9,9 6,2 7 4 - - SSW 1018,7 50
11.08.2018 03:00:00 13,2 6,9 11 6 - - S 1018,8 50
11.08.2018 02:00:00 8,8 6,7 7 4 - - S 1019,6 50
11.08.2018 01:00:00 9,0 7,0 4 2 - - SE 1020,2 50
11.08.2018 00:00:00 10,5 8,0 4 2 - - SE 1020,5 50
10.08.2018 23:00:00 12,0 8,9 4 2 - - SE 1020,6 50
10.08.2018 22:00:00 14,4 9,2 4 2 - - N 1020,6 50
10.08.2018 21:00:00 19,0 8,1 7 4 - - SW 1020,4 50
10.08.2018 20:00:00 20,8 6,7 7 4 - - SSW 1020,1 50
10.08.2018 19:00:00 22,0 6,7 14 8 - - WSW 1020,3 50
10.08.2018 18:00:00 21,1 6,8 11 6 - - W 1020,8 50
10.08.2018 17:00:00 21,5 5,2 29 16 - - WSW 1020,9 50
10.08.2018 16:00:00 22,4 4,9 22 12 - - W 1020,8 50
10.08.2018 15:00:00 22,2 7,4 25 14 - - W 1021,0 50
10.08.2018 14:00:00 21,2 7,8 25 14 - - W 1021,0 50
10.08.2018 13:00:00 20,0 7,8 25 14 - - W 1021,0 50
10.08.2018 12:00:00 18,0 8,1 25 14 50 27 WNW 1020,9 50
10.08.2018 11:00:00 18,1 8,6 29 16 - - W 1020,5 50
10.08.2018 10:00:00 16,6 10,1 29 16 50 27 W 1019,8 50
10.08.2018 09:00:00 15,6 11,6 29 16 50 27 W 1018,7 50
10.08.2018 08:00:00 15,7 11,4 25 14 - - W 1017,4 50
10.08.2018 07:00:00 16,0 12,0 32 18 54 29 W 1016,2 50
10.08.2018 06:00:00 16,9 12,6 32 18 47 25 W 1014,9 50
10.08.2018 05:00:00 17,8 12,5 29 16 - - W 1013,7 15
10.08.2018 04:00:00 18,1 13,1 25 14 50 27 WSW 1012,9 15
10.08.2018 03:00:00 17,6 14,5 11 6 - - WSW 1011,9 15
10.08.2018 02:00:00 18,1 16,1 11 6 - - SW 1011,3 15
10.08.2018 01:00:00 19,5 16,3 18 10 - - SW 1011,0 15
10.08.2018 00:00:00 19,4 16,8 14 8 - - SSW 1010,0 15
09.08.2018 23:00:00 19,3 17,4 11 6 - - SSW 1009,3 14
09.08.2018 22:00:00 19,9 17,4 11 6 - - S 1008,8 14
09.08.2018 21:00:00 20,0 18,7 11 6 - - SE 1008,7 14
09.08.2018 20:00:00 20,7 19,0 11 6 - - SW 1008,4 14
09.08.2018 19:00:00 20,7 18,8 29 16 68 37 SSW 1009,4 4,5
09.08.2018 18:00:00 31,2 14,7 22 12 - - SE 1007,1 18
09.08.2018 17:00:00 31,1 14,7 18 10 - - SSE 1008,2 20
09.08.2018 16:00:00 31,2 14,4 22 12 - - ESE 1010,0 18
09.08.2018 15:00:00 30,5 13,9 22 12 - - ESE 1011,0 25
09.08.2018 14:00:00 29,2 13,8 18 10 - - ESE 1012,1 25
09.08.2018 13:00:00 27,7 13,6 14 8 - - E 1013,6 20
09.08.2018 12:00:00 26,6 14,0 14 8 - - E 1014,5 25
09.08.2018 11:00:00 24,9 13,2 14 8 - - SSE 1015,1 20
09.08.2018 10:00:00 23,0 14,2 11 6 - - ESE 1015,8 20
09.08.2018 09:00:00 21,7 13,8 14 8 - - ESE 1016,1 20
09.08.2018 08:00:00 18,5 14,5 11 6 - - E 1016,3 15
09.08.2018 07:00:00 15,9 13,9 4 2 - - E 1016,5 15
09.08.2018 06:00:00 14,2 12,4 0 0 - - N 1016,3 15
09.08.2018 05:00:00 14,8 12,8 0 0 - - N 1016,2 30
09.08.2018 04:00:00 14,9 12,7 0 0 - - N 1016,1 30
09.08.2018 03:00:00 16,1 13,2 0 0 - - N 1016,1 30
09.08.2018 02:00:00 16,6 13,5 4 2 - - E 1016,0 30
09.08.2018 01:00:00 17,6 13,8 0 0 - - N 1015,8 30

tt = Température de l'air
td = dewpoint
ff = Vitesse du vent
fx = gusts
dd = Direction du vent
ppp = reduced air pressure
vv = visibility

stations d'obs. à proximité